This is the latest recevied weather packets stored in our database for station/object W6UA-13. If no packets are shown the sender has not sent any weather packets the latest 10 day(s).
| Time | Temp. | Humidity | Pressure | Rain* | Wind** | Luminosity | Snow |
|---|---|---|---|---|---|---|---|
| 1777054802 | 18.89° C | 64% | 1014.2 hPa | 0 mm | - | 788 W/m² | - |
| 1777053902 | 18.33° C | 64% | 1014.3 hPa | 0 mm | - | 756 W/m² | - |
| 1777053002 | 17.78° C | 66% | 1014.2 hPa | 0 mm | - | 724 W/m² | - |
| 1777052102 | 17.22° C | 67% | 1014.2 hPa | 0 mm | - | 694 W/m² | - |
| 1777051202 | 16.67° C | 68% | 1014.2 hPa | 0 mm | - | 654 W/m² | - |
| 1777050302 | 17.22° C | 66% | 1013.9 hPa | 0 mm | - | 615 W/m² | - |
| 1777049402 | 17.78° C | 66% | 1013.8 hPa | 0 mm | - | 571 W/m² | - |
| 1777048502 | 17.78° C | 67% | 1013.7 hPa | 0 mm | - | 107 W/m² | - |
| 1777047602 | 17.78° C | 67% | 1013.3 hPa | 0 mm | - | 494 W/m² | - |
| 1777046702 | 16.67° C | 70% | 1013.3 hPa | 0 mm | - | 445 W/m² | - |
| 1777045802 | 16.11° C | 72% | 1013.3 hPa | 0 mm | - | 397 W/m² | - |
| 1777044902 | 15.56° C | 74% | 1013.3 hPa | 0 mm | - | 352 W/m² | - |
| 1777044002 | 15° C | 77% | 1013.3 hPa | 0 mm | - | 297 W/m² | - |
| 1777043102 | 14.44° C | 79% | 1013.3 hPa | 0 mm | - | 244 W/m² | - |
| 1777042202 | 13.33° C | 81% | 1013.2 hPa | 0 mm | - | 197 W/m² | - |
| 1777041302 | 12.78° C | 84% | 1013.3 hPa | 0 mm | - | 148 W/m² | - |
| 1777040402 | 11.67° C | 84% | 1012.7 hPa | 0 mm | - | 74 W/m² | - |
| 1777039502 | 11.11° C | 85% | 1012.5 hPa | 0 mm | - | 30 W/m² | - |
| 1777038602 | 10.56° C | 84% | 1012.2 hPa | 0 mm | - | 42 W/m² | - |
| 1777037702 | 10.56° C | 84% | 1012.3 hPa | 0 mm | - | 7 W/m² | - |
| 1777036802 | 10.56° C | 84% | 1012.2 hPa | 0 mm | - | 0 W/m² | - |
| 1777035902 | 9.44° C | 81% | 1012.2 hPa | 0 mm | - | 0 W/m² | - |
| 1777035002 | 10° C | 79% | 1012.3 hPa | 0 mm | - | 0 W/m² | - |
| 1777034102 | 10° C | 79% | 1012.2 hPa | 0 mm | - | 0 W/m² | - |
| 1777033202 | 9.44° C | 81% | 1011.8 hPa | 0 mm | - | 0 W/m² | - |
* Rain latest hour (hover to see other rain measurements)
** Current wind speed in m/s (hover to see current wind gust speed)